| time (UTC) | temp F | wind direction | speed MPH | gust MPH | rain 1hr in | rain 24hr in | rain mn in | humidity % | barometer mb |
| 20260904015541 | 68 | 180 | 4.0 | 20.0 | 0.00 | 0.00 | 0.00 | 84 | 1014.2 |
| 20260904015043 | 68 | 210 | 8.0 | 20.0 | 0.00 | 0.00 | 0.00 | 84 | 1014.5 |
| 20260904014648 | 68 | 226 | 7.0 | 16.0 | 0.00 | 0.00 | 0.00 | 84 | 1014.5 |
| 20260904014042 | 68 | 192 | 5.0 | 12.0 | 0.00 | 0.00 | 0.00 | 84 | 1014.6 |
| 20260904013542 | 68 | 206 | 6.0 | 17.0 | 0.00 | 0.00 | 0.00 | 84 | 1014.6 |
| 20260904013108 | 68 | 205 | 7.0 | 18.0 | 0.00 | 0.00 | 0.00 | 84 | 1014.6 |
| 20260904012542 | 68 | 219 | 7.0 | 18.0 | 0.00 | 0.00 | 0.00 | 84 | 1014.8 |
| 20260904012039 | 68 | 185 | 5.0 | 12.0 | 0.00 | 0.00 | 0.00 | 84 | 1014.8 |
| 20260904011607 | 68 | 198 | 5.0 | 18.0 | 0.00 | 0.00 | 0.00 | 84 | 1014.9 |
| 20260904011042 | 68 | 200 | 4.0 | 18.0 | 0.00 | 0.00 | 0.00 | 84 | 1015.0 |
| 20260904010540 | 68 | 220 | 5.0 | 18.0 | 0.00 | 0.00 | 0.00 | 84 | 1015.0 |
| 20260904010106 | 68 | 210 | 7.0 | 18.0 | 0.00 | 0.00 | 0.00 | 84 | 1015.0 |
| 20260904005543 | 68 | 199 | 6.0 | 17.0 | 0.00 | 0.00 | 0.00 | 84 | 1015.0 |
| 20260904005042 | 68 | 202 | 5.0 | 16.0 | 0.00 | 0.00 | 0.00 | 84 | 1015.0 |
| 20260904004606 | 68 | 196 | 5.0 | 17.0 | 0.00 | 0.00 | 0.00 | 84 | 1015.1 |
| 20260904004039 | 68 | 222 | 8.0 | 17.0 | 0.00 | 0.00 | 0.00 | 84 | 1015.2 |
| 20260904003541 | 68 | 213 | 6.0 | 17.0 | 0.00 | 0.00 | 0.00 | 84 | 1015.2 |
| 20260904003111 | 67 | 182 | 6.0 | 21.0 | 0.00 | 0.00 | 0.00 | 84 | 1015.2 |
| 20260904002545 | 67 | 174 | 7.0 | 21.0 | 0.00 | 0.00 | 0.00 | 85 | 1015.3 |
| 20260904002045 | 67 | 238 | 7.0 | 17.0 | 0.00 | 0.00 | 0.00 | 85 | 1015.4 |
| 20260904001557 | 67 | 197 | 6.0 | 17.0 | 0.00 | 0.00 | 0.00 | 85 | 1015.4 |
| 20260904001047 | 67 | 172 | 8.0 | 19.0 | 0.00 | 0.00 | 0.00 | 85 | 1015.3 |
| 20260904000544 | 67 | 219 | 8.0 | 19.0 | 0.00 | 0.00 | 0.00 | 85 | 1015.6 |
| 20260904000107 | 67 | 225 | 8.0 | 17.0 | 0.00 | 0.00 | 0.00 | 86 | 1015.8 |
| 20260903235542 | 67 | 271 | 6.0 | 16.0 | 0.00 | 0.00 | 0.00 | 86 | 1015.9 |
| 20260903235043 | 67 | 190 | 6.0 | 18.0 | 0.00 | 0.00 | 0.00 | 86 | 1016.0 |
| 20260903234613 | 67 | 214 | 6.0 | 18.0 | 0.00 | 0.00 | 0.00 | 86 | 1016.1 |
| 20260903234048 | 67 | 217 | 7.0 | 14.0 | 0.00 | 0.00 | 0.00 | 86 | 1016.1 |
| 20260903233545 | 67 | 225 | 8.0 | 14.0 | 0.00 | 0.00 | 0.00 | 86 | 1016.2 |
| 20260903233101 | 67 | 186 | 5.0 | 13.0 | 0.00 | 0.00 | 0.00 | 87 | 1016.1 |
| 20260903232544 | 67 | 213 | 4.0 | 12.0 | 0.00 | 0.00 | 0.00 | 87 | 1016.2 |
| 20260903232044 | 67 | 206 | 5.0 | 12.0 | 0.00 | 0.00 | 0.00 | 87 | 1016.2 |
| 20260903231601 | 67 | 207 | 4.0 | 15.0 | 0.00 | 0.00 | 0.00 | 87 | 1016.4 |
| 20260903231044 | 67 | 223 | 4.0 | 15.0 | 0.00 | 0.00 | 0.00 | 87 | 1016.4 |
| 20260903230544 | 67 | 180 | 5.0 | 16.0 | 0.00 | 0.00 | 0.00 | 87 | 1016.5 |
| 20260903230109 | 67 | 238 | 6.0 | 16.0 | 0.00 | 0.00 | 0.00 | 87 | 1016.6 |
| 20260903225545 | 67 | 231 | 5.0 | 16.0 | 0.00 | 0.00 | 0.00 | 87 | 1016.7 |
| 20260903225044 | 67 | 215 | 5.0 | 16.0 | 0.00 | 0.00 | 0.00 | 87 | 1016.9 |
| 20260903224558 | 67 | 230 | 6.0 | 17.0 | 0.00 | 0.00 | 0.00 | 87 | 1016.8 |
| 20260903224045 | 67 | 192 | 8.0 | 17.0 | 0.00 | 0.00 | 0.00 | 87 | 1016.8 |
| 20260903223544 | 67 | 236 | 7.0 | 14.0 | 0.00 | 0.00 | 0.00 | 87 | 1016.8 |
| 20260903223101 | 67 | 249 | 4.0 | 9.0 | 0.00 | 0.00 | 0.00 | 87 | 1016.9 |
| 20260903222544 | 67 | 238 | 4.0 | 9.0 | 0.00 | 0.00 | 0.00 | 87 | 1017.0 |
| 20260903222046 | 68 | 194 | 3.0 | 12.0 | 0.00 | 0.00 | 0.00 | 86 | 1016.9 |
| 20260903221603 | 68 | 219 | 5.0 | 12.0 | 0.00 | 0.00 | 0.00 | 86 | 1016.8 |
| 20260903221043 | 68 | 236 | 3.0 | 10.0 | 0.00 | 0.00 | 0.00 | 85 | 1016.8 |
| 20260903220544 | 68 | 200 | 4.0 | 15.0 | 0.00 | 0.00 | 0.00 | 85 | 1016.9 |
| 20260903220107 | 68 | 232 | 7.0 | 15.0 | 0.00 | 0.00 | 0.00 | 85 | 1017.0 |
| 20260903215545 | 68 | 213 | 6.0 | 14.0 | 0.00 | 0.00 | 0.00 | 85 | 1017.0 |
| 20260903215045 | 68 | 214 | 5.0 | 14.0 | 0.00 | 0.00 | 0.00 | 85 | 1017.1 |
| 20260903214610 | 68 | 204 | 6.0 | 14.0 | 0.00 | 0.00 | 0.00 | 86 | 1017.2 |
| 20260903214044 | 68 | 254 | 6.0 | 14.0 | 0.00 | 0.00 | 0.00 | 87 | 1017.4 |
| 20260903213546 | 68 | 212 | 4.0 | 14.0 | 0.00 | 0.00 | 0.00 | 88 | 1017.5 |
| 20260903213100 | 68 | 195 | 4.0 | 10.0 | 0.00 | 0.00 | 0.00 | 87 | 1017.6 |
| 20260903212544 | 69 | 302 | 4.0 | 14.0 | 0.00 | 0.00 | 0.00 | 87 | 1017.7 |
| 20260903212044 | 69 | 232 | 5.0 | 14.0 | 0.00 | 0.00 | 0.00 | 87 | 1017.6 |
| 20260903211602 | 69 | 247 | 8.0 | 14.0 | 0.00 | 0.00 | 0.00 | 86 | 1017.6 |
| 20260903211044 | 70 | 267 | 6.0 | 14.0 | 0.00 | 0.00 | 0.00 | 85 | 1017.6 |
| 20260903210544 | 70 | 215 | 9.0 | 16.0 | 0.00 | 0.00 | 0.00 | 84 | 1017.6 |
| 20260903205544 | 70 | 251 | 8.0 | 16.0 | 0.00 | 0.00 | 0.00 | 84 | 1017.5 |
| 20260903205044 | 70 | 216 | 5.0 | 14.0 | 0.00 | 0.00 | 0.00 | 83 | 1017.4 |
| 20260903204605 | 70 | 184 | 5.0 | 14.0 | 0.00 | 0.00 | 0.00 | 83 | 1017.4 |
| 20260903204043 | 70 | 221 | 7.0 | 16.0 | 0.00 | 0.00 | 0.00 | 83 | 1017.4 |
| 20260903203543 | 70 | 254 | 7.0 | 16.0 | 0.00 | 0.00 | 0.00 | 83 | 1017.4 |
| 20260903203101 | 71 | 236 | 4.0 | 15.0 | 0.00 | 0.00 | 0.00 | 82 | 1017.4 |
| 20260903202547 | 71 | 203 | 8.0 | 19.0 | 0.00 | 0.00 | 0.00 | 81 | 1017.5 |
| 20260903202044 | 71 | 214 | 6.0 | 20.0 | 0.00 | 0.00 | 0.00 | 81 | 1017.5 |
| 20260903201601 | 71 | 237 | 9.0 | 20.0 | 0.00 | 0.00 | 0.00 | 80 | 1017.6 |
| 20260903201044 | 71 | 193 | 6.0 | 17.0 | 0.00 | 0.00 | 0.00 | 80 | 1017.3 |
| 20260903200544 | 71 | 217 | 7.0 | 17.0 | 0.00 | 0.00 | 0.00 | 80 | 1017.4 |
| 20260903200058 | 71 | 204 | 6.0 | 18.0 | 0.00 | 0.00 | 0.00 | 79 | 1017.5 |
| 20260903195543 | 72 | 229 | 8.0 | 18.0 | 0.00 | 0.00 | 0.00 | 79 | 1017.5 |
| 20260903195044 | 72 | 182 | 7.0 | 16.0 | 0.00 | 0.00 | 0.00 | 78 | 1017.5 |
| 20260903194603 | 72 | 220 | 6.0 | 16.0 | 0.00 | 0.00 | 0.00 | 77 | 1017.5 |
| 20260903194044 | 73 | 238 | 6.0 | 13.0 | 0.00 | 0.00 | 0.00 | 76 | 1017.5 |
| 20260903193542 | 73 | 198 | 5.0 | 12.0 | 0.00 | 0.00 | 0.00 | 74 | 1017.4 |
| 20260903193118 | 73 | 194 | 5.0 | 12.0 | 0.00 | 0.00 | 0.00 | 73 | 1017.4 |
| 20260903192545 | 73 | 220 | 2.0 | 10.0 | 0.00 | 0.00 | 0.00 | 71 | 1017.4 |
| 20260903192043 | 73 | 193 | 3.0 | 10.0 | 0.00 | 0.00 | 0.00 | 71 | 1017.5 |
| 20260903191607 | 73 | 236 | 7.0 | 10.0 | 0.00 | 0.00 | 0.00 | 71 | 1017.5 |
| 20260903191043 | 73 | 257 | 2.0 | 7.0 | 0.00 | 0.00 | 0.00 | 71 | 1017.7 |
| 20260903190543 | 73 | 248 | 3.0 | 9.0 | 0.00 | 0.00 | 0.00 | 70 | 1017.7 |
| 20260903190109 | 73 | 251 | 3.0 | 9.0 | 0.00 | 0.00 | 0.00 | 70 | 1017.7 |
| 20260903185543 | 73 | 267 | 5.0 | 10.0 | 0.00 | 0.00 | 0.00 | 70 | 1017.5 |
| 20260903185043 | 73 | 248 | 3.0 | 10.0 | 0.00 | 0.00 | 0.00 | 69 | 1017.4 |
| 20260903184610 | 73 | 292 | 5.0 | 11.0 | 0.00 | 0.00 | 0.00 | 69 | 1017.4 |
| 20260903184044 | 74 | 246 | 5.0 | 13.0 | 0.00 | 0.00 | 0.00 | 68 | 1017.5 |
| 20260903183546 | 74 | 264 | 5.0 | 13.0 | 0.00 | 0.00 | 0.00 | 68 | 1017.5 |
| 20260903183106 | 74 | 260 | 7.0 | 13.0 | 0.00 | 0.00 | 0.00 | 67 | 1017.4 |
| 20260903182547 | 74 | 278 | 6.0 | 12.0 | 0.00 | 0.00 | 0.00 | 67 | 1017.4 |
| 20260903182044 | 74 | 311 | 6.0 | 13.0 | 0.00 | 0.00 | 0.00 | 66 | 1017.4 |
| 20260903181607 | 74 | 277 | 4.0 | 13.0 | 0.00 | 0.00 | 0.00 | 66 | 1017.4 |
| 20260903181045 | 75 | 265 | 6.0 | 12.0 | 0.00 | 0.00 | 0.00 | 66 | 1017.4 |
| 20260903180544 | 75 | 304 | 5.0 | 15.0 | 0.00 | 0.00 | 0.00 | 65 | 1017.5 |
| 20260903180110 | 75 | 346 | 4.0 | 15.0 | 0.00 | 0.00 | 0.00 | 65 | 1017.5 |
| 20260903175542 | 75 | 281 | 8.0 | 19.0 | 0.00 | 0.00 | 0.00 | 64 | 1017.5 |
| 20260903175043 | 75 | 221 | 10.0 | 19.0 | 0.00 | 0.00 | 0.00 | 64 | 1017.5 |
| 20260903174601 | 75 | 248 | 9.0 | 23.0 | 0.00 | 0.00 | 0.00 | 63 | 1017.6 |
| 20260903174043 | 76 | 207 | 11.0 | 23.0 | 0.00 | 0.00 | 0.00 | 62 | 1017.7 |
| 20260903173543 | 76 | 262 | 9.0 | 22.0 | 0.00 | 0.00 | 0.00 | 61 | 1017.6 |
| 20260903173107 | 76 | 226 | 10.0 | 18.0 | 0.00 | 0.00 | 0.00 | 61 | 1017.7 |
| 20260903172544 | 76 | 233 | 9.0 | 20.0 | 0.00 | 0.00 | 0.00 | 61 | 1017.6 |
| 20260903172043 | 76 | 261 | 10.0 | 20.0 | 0.00 | 0.00 | 0.00 | 62 | 1017.6 |
| 20260903171600 | 76 | 216 | 10.0 | 23.0 | 0.00 | 0.00 | 0.00 | 60 | 1017.7 |
| 20260903171044 | 77 | 266 | 9.0 | 23.0 | 0.00 | 0.00 | 0.00 | 60 | 1017.7 |
| 20260903170543 | 77 | 296 | 8.0 | 24.0 | 0.00 | 0.00 | 0.00 | 58 | 1017.5 |
| 20260903170219 | 77 | 317 | 13.0 | 24.0 | 0.00 | 0.00 | 0.00 | 58 | 1017.5 |
| 20260903165544 | 77 | 212 | 11.0 | 20.0 | 0.00 | 0.00 | 0.00 | 58 | 1017.4 |
| 20260903165043 | 77 | 313 | 9.0 | 17.0 | 0.00 | 0.00 | 0.00 | 59 | 1017.6 |
| 20260903164602 | 77 | 202 | 8.0 | 17.0 | 0.00 | 0.00 | 0.00 | 60 | 1017.5 |
| 20260903164044 | 77 | 242 | 6.0 | 15.0 | 0.00 | 0.00 | 0.00 | 64 | 1017.5 |
| 20260903163548 | 77 | 249 | 7.0 | 15.0 | 0.00 | 0.00 | 0.00 | 68 | 1017.3 |
| 20260903163103 | 77 | 215 | 5.0 | 16.0 | 0.00 | 0.00 | 0.00 | 67 | 1017.3 |
| 20260903162546 | 77 | 282 | 5.0 | 17.0 | 0.00 | 0.00 | 0.00 | 66 | 1017.5 |
| 20260903162043 | 77 | 213 | 8.0 | 17.0 | 0.00 | 0.00 | 0.00 | 66 | 1017.5 |
| 20260903161609 | 77 | 231 | 8.0 | 17.0 | 0.00 | 0.00 | 0.00 | 65 | 1017.5 |
| 20260903161045 | 77 | 242 | 7.0 | 17.0 | 0.00 | 0.00 | 0.00 | 65 | 1017.5 |
| 20260903160545 | 78 | 233 | 7.0 | 16.0 | 0.00 | 0.00 | 0.00 | 65 | 1017.5 |
| 20260903155543 | 78 | 234 | 7.0 | 13.0 | 0.00 | 0.00 | 0.00 | 63 | 1017.5 |
| 20260903155044 | 78 | 229 | 5.0 | 18.0 | 0.00 | 0.00 | 0.00 | 63 | 1017.6 |
| 20260903154602 | 78 | 184 | 6.0 | 18.0 | 0.00 | 0.00 | 0.00 | 64 | 1017.6 |
| 20260903154043 | 78 | 234 | 8.0 | 18.0 | 0.00 | 0.00 | 0.00 | 62 | 1017.6 |
| 20260903153543 | 78 | 216 | 7.0 | 17.0 | 0.00 | 0.00 | 0.00 | 63 | 1017.7 |
| 20260903153106 | 78 | 240 | 7.0 | 17.0 | 0.00 | 0.00 | 0.00 | 64 | 1017.8 |
| 20260903152544 | 78 | 257 | 8.0 | 21.0 | 0.00 | 0.00 | 0.00 | 63 | 1017.9 |
| 20260903152046 | 78 | 265 | 10.0 | 21.0 | 0.00 | 0.00 | 0.00 | 63 | 1017.9 |
| 20260903151604 | 78 | 223 | 5.0 | 13.0 | 0.00 | 0.00 | 0.00 | 65 | 1017.8 |
| 20260903151045 | 77 | 271 | 5.0 | 12.0 | 0.00 | 0.00 | 0.00 | 65 | 1017.9 |
| 20260903150544 | 77 | 238 | 6.0 | 14.0 | 0.00 | 0.00 | 0.00 | 65 | 1017.8 |
| 20260903150103 | 77 | 231 | 7.0 | 14.0 | 0.00 | 0.00 | 0.00 | 64 | 1017.9 |
| 20260903145547 | 78 | 199 | 7.0 | 14.0 | 0.00 | 0.00 | 0.00 | 63 | 1017.8 |
| 20260903145043 | 78 | 215 | 6.0 | 15.0 | 0.00 | 0.00 | 0.00 | 63 | 1018.1 |
| 20260903144602 | 78 | 250 | 6.0 | 15.0 | 0.00 | 0.00 | 0.00 | 63 | 1017.9 |
| 20260903144043 | 78 | 244 | 7.0 | 16.0 | 0.00 | 0.00 | 0.00 | 64 | 1018.1 |
| 20260903143543 | 78 | 237 | 7.0 | 16.0 | 0.00 | 0.00 | 0.00 | 64 | 1018.3 |
| 20260903143102 | 77 | 281 | 9.0 | 15.0 | 0.00 | 0.00 | 0.00 | 64 | 1018.2 |
| 20260903142547 | 77 | 282 | 5.0 | 13.0 | 0.00 | 0.00 | 0.00 | 66 | 1018.2 |
| 20260903142045 | 77 | 291 | 8.0 | 18.0 | 0.00 | 0.00 | 0.00 | 66 | 1018.3 |
| 20260903141600 | 77 | 238 | 9.0 | 18.0 | 0.00 | 0.00 | 0.00 | 66 | 1018.4 |
| 20260903141043 | 76 | 211 | 7.0 | 18.0 | 0.00 | 0.00 | 0.00 | 67 | 1018.4 |
| 20260903140543 | 76 | 261 | 9.0 | 18.0 | 0.00 | 0.00 | 0.00 | 66 | 1018.4 |
| 20260903140105 | 76 | 265 | 10.0 | 17.0 | 0.00 | 0.00 | 0.00 | 65 | 1018.6 |
| 20260903135543 | 76 | 219 | 9.0 | 16.0 | 0.00 | 0.00 | 0.00 | 66 | 1018.7 |
| 20260903135042 | 76 | 267 | 8.0 | 15.0 | 0.00 | 0.00 | 0.00 | 67 | 1018.5 |
| 20260903134604 | 76 | 229 | 7.0 | 18.0 | 0.00 | 0.00 | 0.00 | 67 | 1018.6 |
| 20260903134043 | 76 | 238 | 8.0 | 18.0 | 0.00 | 0.00 | 0.00 | 65 | 1018.7 |
| 20260903133544 | 77 | 221 | 10.0 | 18.0 | 0.00 | 0.00 | 0.00 | 64 | 1018.8 |
| 20260903133103 | 77 | 281 | 5.0 | 14.0 | 0.00 | 0.00 | 0.00 | 66 | 1018.8 |
| 20260903132543 | 77 | 197 | 6.0 | 16.0 | 0.00 | 0.00 | 0.00 | 65 | 1018.9 |
| 20260903132043 | 76 | 271 | 9.0 | 16.0 | 0.00 | 0.00 | 0.00 | 66 | 1018.8 |
| 20260903131608 | 76 | 237 | 7.0 | 14.0 | 0.00 | 0.00 | 0.00 | 66 | 1018.9 |
| 20260903131044 | 76 | 215 | 5.0 | 10.0 | 0.00 | 0.00 | 0.00 | 68 | 1018.9 |
| 20260903130543 | 76 | 189 | 5.0 | 12.0 | 0.00 | 0.00 | 0.00 | 70 | 1018.9 |
| 20260903130101 | 76 | 241 | 5.0 | 14.0 | 0.00 | 0.00 | 0.00 | 69 | 1018.9 |
| 20260903125543 | 75 | 279 | 5.0 | 17.0 | 0.00 | 0.00 | 0.00 | 70 | 1019.0 |
| 20260903125045 | 75 | 246 | 8.0 | 17.0 | 0.00 | 0.00 | 0.00 | 70 | 1019.1 |
| 20260903124603 | 74 | 211 | 6.0 | 16.0 | 0.00 | 0.00 | 0.00 | 71 | 1018.9 |
| 20260903124042 | 74 | 256 | 5.0 | 17.0 | 0.00 | 0.00 | 0.00 | 72 | 1019.0 |
| 20260903123543 | 73 | 248 | 10.0 | 17.0 | 0.00 | 0.00 | 0.00 | 71 | 1019.2 |
| 20260903123105 | 73 | 251 | 7.0 | 16.0 | 0.00 | 0.00 | 0.00 | 72 | 1019.3 |
| 20260903122543 | 73 | 247 | 7.0 | 16.0 | 0.00 | 0.00 | 0.00 | 73 | 1019.4 |
| 20260903122044 | 73 | 231 | 7.0 | 15.0 | 0.00 | 0.00 | 0.00 | 73 | 1019.5 |
| 20260903121558 | 73 | 277 | 7.0 | 15.0 | 0.00 | 0.00 | 0.00 | 73 | 1019.5 |
| 20260903121045 | 73 | 215 | 3.0 | 10.0 | 0.00 | 0.00 | 0.00 | 74 | 1019.5 |
| 20260903120545 | 73 | 243 | 6.0 | 15.0 | 0.00 | 0.00 | 0.00 | 73 | 1019.5 |
| 20260903120059 | 72 | 275 | 7.0 | 15.0 | 0.00 | 0.00 | 0.00 | 73 | 1019.7 |
| 20260903115543 | 72 | 271 | 6.0 | 11.0 | 0.00 | 0.00 | 0.00 | 73 | 1019.5 |
| 20260903115043 | 72 | 264 | 6.0 | 11.0 | 0.00 | 0.00 | 0.00 | 74 | 1019.6 |
| 20260903114609 | 72 | 283 | 5.0 | 13.0 | 0.00 | 0.00 | 0.00 | 74 | 1019.5 |
| 20260903114043 | 72 | 213 | 7.0 | 13.0 | 0.00 | 0.00 | 0.00 | 74 | 1019.4 |
| 20260903113543 | 72 | 234 | 4.0 | 11.0 | 0.00 | 0.00 | 0.00 | 74 | 1019.4 |
| 20260903113108 | 72 | 236 | 7.0 | 12.0 | 0.00 | 0.00 | 0.00 | 74 | 1019.4 |
| 20260903112544 | 72 | 218 | 6.0 | 12.0 | 0.00 | 0.00 | 0.00 | 74 | 1019.4 |
| 20260903112044 | 72 | 223 | 5.0 | 12.0 | 0.00 | 0.00 | 0.00 | 74 | 1019.3 |
| 20260903111601 | 72 | 236 | 6.0 | 12.0 | 0.00 | 0.00 | 0.00 | 75 | 1019.3 |
| 20260903111045 | 71 | 257 | 6.0 | 13.0 | 0.00 | 0.00 | 0.00 | 74 | 1019.4 |
| 20260903110543 | 71 | 250 | 7.0 | 13.0 | 0.00 | 0.00 | 0.00 | 75 | 1019.4 |
| 20260903110107 | 71 | 240 | 5.0 | 11.0 | 0.00 | 0.00 | 0.00 | 76 | 1019.5 |
| 20260903105543 | 71 | 225 | 7.0 | 11.0 | 0.00 | 0.00 | 0.00 | 76 | 1019.5 |
| 20260903105046 | 71 | 243 | 6.0 | 11.0 | 0.00 | 0.00 | 0.00 | 76 | 1019.6 |
| 20260903104605 | 71 | 242 | 5.0 | 14.0 | 0.00 | 0.00 | 0.00 | 76 | 1019.7 |
| 20260903104045 | 71 | 273 | 5.0 | 14.0 | 0.00 | 0.00 | 0.00 | 77 | 1019.6 |
| 20260903103545 | 70 | 259 | 7.0 | 14.0 | 0.00 | 0.00 | 0.00 | 77 | 1019.6 |
| 20260903103102 | 70 | 248 | 7.0 | 15.0 | 0.00 | 0.00 | 0.00 | 76 | 1019.7 |
| 20260903102543 | 70 | 265 | 7.0 | 15.0 | 0.00 | 0.00 | 0.00 | 76 | 1019.6 |
| 20260903102043 | 71 | 225 | 7.0 | 15.0 | 0.00 | 0.00 | 0.00 | 75 | 1019.7 |
| 20260903101602 | 71 | 205 | 7.0 | 14.0 | 0.00 | 0.00 | 0.00 | 75 | 1019.7 |
| 20260903101043 | 71 | 240 | 7.0 | 14.0 | 0.00 | 0.00 | 0.00 | 75 | 1019.7 |
| 20260903100544 | 71 | 249 | 7.0 | 12.0 | 0.00 | 0.00 | 0.00 | 75 | 1019.8 |
| 20260903100105 | 71 | 244 | 5.0 | 15.0 | 0.00 | 0.00 | 0.00 | 77 | 1019.6 |
| 20260903095543 | 70 | 257 | 5.0 | 15.0 | 0.00 | 0.01 | 0.00 | 77 | 1019.7 |
| 20260903095043 | 70 | 260 | 8.0 | 15.0 | 0.00 | 0.01 | 0.00 | 76 | 1019.6 |
| 20260903094602 | 70 | 270 | 9.0 | 17.0 | 0.00 | 0.01 | 0.00 | 77 | 1019.4 |
| 20260903094043 | 70 | 254 | 10.0 | 17.0 | 0.00 | 0.01 | 0.00 | 77 | 1019.4 |
| 20260903093546 | 70 | 210 | 4.0 | 14.0 | 0.00 | 0.01 | 0.00 | 78 | 1019.5 |
| 20260903093105 | 69 | 206 | 4.0 | 17.0 | 0.00 | 0.01 | 0.00 | 79 | 1019.5 |
| 20260903092543 | 69 | 240 | 8.0 | 17.0 | 0.00 | 0.01 | 0.00 | 78 | 1019.5 |
| 20260903092043 | 69 | 240 | 5.0 | 15.0 | 0.00 | 0.01 | 0.00 | 79 | 1019.5 |
| 20260903091603 | 69 | 250 | 6.0 | 15.0 | 0.00 | 0.01 | 0.00 | 78 | 1019.5 |
| 20260903091043 | 69 | 254 | 6.0 | 18.0 | 0.00 | 0.01 | 0.00 | 79 | 1019.6 |
| 20260903090543 | 69 | 215 | 8.0 | 18.0 | 0.00 | 0.01 | 0.00 | 78 | 1019.7 |
| 20260903090059 | 69 | 228 | 9.0 | 18.0 | 0.00 | 0.01 | 0.00 | 78 | 1019.6 |
| 20260903085544 | 69 | 314 | 9.0 | 17.0 | 0.00 | 0.01 | 0.00 | 78 | 1019.6 |
| 20260903085043 | 69 | 237 | 9.0 | 16.0 | 0.00 | 0.01 | 0.00 | 79 | 1019.5 |
| 20260903084619 | 69 | 242 | 7.0 | 19.0 | 0.00 | 0.01 | 0.00 | 80 | 1019.5 |
| 20260903084043 | 68 | 229 | 8.0 | 19.0 | 0.00 | 0.01 | 0.00 | 80 | 1019.5 |
| 20260903083543 | 68 | 271 | 10.0 | 17.0 | 0.00 | 0.01 | 0.00 | 80 | 1019.2 |
| 20260903083105 | 68 | 220 | 10.0 | 18.0 | 0.00 | 0.01 | 0.00 | 81 | 1019.3 |
| 20260903082544 | 68 | 234 | 7.0 | 18.0 | 0.00 | 0.01 | 0.00 | 81 | 1019.6 |
| 20260903082043 | 68 | 319 | 5.0 | 19.0 | 0.00 | 0.01 | 0.00 | 82 | 1019.4 |
| 20260903081558 | 68 | 256 | 6.0 | 19.0 | 0.00 | 0.01 | 0.00 | 83 | 1019.4 |
| 20260903081044 | 67 | 245 | 9.0 | 18.0 | 0.00 | 0.01 | 0.00 | 83 | 1019.1 |
| 20260903080543 | 67 | 259 | 9.0 | 18.0 | 0.00 | 0.01 | 0.00 | 84 | 1018.8 |
| 20260903075544 | 67 | 239 | 8.0 | 14.0 | 0.00 | 0.01 | 0.00 | 86 | 1018.9 |
| 20260903075043 | 67 | 228 | 7.0 | 14.0 | 0.00 | 0.01 | 0.00 | 87 | 1018.6 |
| 20260903074605 | 67 | 285 | 6.0 | 13.0 | 0.00 | 0.01 | 0.00 | 87 | 1018.7 |
| 20260903074044 | 67 | 226 | 5.0 | 13.0 | 0.00 | 0.01 | 0.00 | 87 | 1018.5 |
| 20260903073543 | 67 | 222 | 6.0 | 13.0 | 0.00 | 0.01 | 0.00 | 88 | 1018.4 |
| 20260903073109 | 66 | 230 | 5.0 | 13.0 | 0.00 | 0.01 | 0.00 | 88 | 1018.3 |
| 20260903072543 | 66 | 222 | 4.0 | 14.0 | 0.00 | 0.01 | 0.00 | 88 | 1018.3 |
| 20260903072044 | 66 | 254 | 6.0 | 14.0 | 0.00 | 0.01 | 0.00 | 88 | 1018.2 |
| 20260903071605 | 66 | 223 | 4.0 | 11.0 | 0.00 | 0.01 | 0.00 | 88 | 1018.1 |
| 20260903071042 | 66 | 223 | 4.0 | 11.0 | 0.00 | 0.01 | 0.00 | 88 | 1018.2 |
| 20260903070546 | 66 | 222 | 5.0 | 10.0 | 0.00 | 0.01 | 0.00 | 88 | 1018.0 |
| 20260903065540 | 66 | 205 | 3.0 | 9.0 | 0.00 | 0.01 | 0.00 | 88 | 1017.8 |
| 20260903065043 | 66 | 205 | 3.0 | 11.0 | 0.00 | 0.01 | 0.00 | 88 | 1017.9 |
| 20260903064600 | 66 | 229 | 4.0 | 12.0 | 0.00 | 0.01 | 0.00 | 88 | 1017.9 |
| 20260903064043 | 66 | 143 | 4.0 | 12.0 | 0.00 | 0.01 | 0.00 | 88 | 1018.0 |
| 20260903063544 | 66 | 256 | 3.0 | 10.0 | 0.00 | 0.01 | 0.00 | 88 | 1018.2 |
| 20260903063059 | 66 | 212 | 4.0 | 10.0 | 0.00 | 0.01 | 0.00 | 88 | 1018.2 |
| 20260903062543 | 66 | 207 | 4.0 | 9.0 | 0.00 | 0.01 | 0.00 | 88 | 1018.3 |
| 20260903062043 | 66 | 230 | 4.0 | 9.0 | 0.00 | 0.01 | 0.00 | 88 | 1018.4 |
| 20260903061604 | 66 | 211 | 3.0 | 9.0 | 0.00 | 0.01 | 0.00 | 89 | 1018.3 |
| 20260903061042 | 66 | 200 | 4.0 | 9.0 | 0.00 | 0.01 | 0.00 | 89 | 1018.2 |
| 20260903060543 | 66 | 256 | 3.0 | 9.0 | 0.00 | 0.01 | 0.00 | 89 | 1018.3 |
| 20260903060105 | 66 | 229 | 4.0 | 8.0 | 0.00 | 0.01 | 0.00 | 89 | 1018.2 |
| 20260903055544 | 66 | 259 | 3.0 | 8.0 | 0.00 | 0.01 | 0.00 | 89 | 1018.2 |
| 20260903055043 | 66 | 0 | 3.0 | 9.0 | 0.00 | 0.01 | 0.00 | 89 | 1018.2 |
| 20260903054601 | 66 | 209 | 2.0 | 9.0 | 0.00 | 0.01 | 0.00 | 89 | 1018.2 |
| 20260903054043 | 65 | 217 | 3.0 | 10.0 | 0.00 | 0.01 | 0.00 | 89 | 1018.3 |
| 20260903053544 | 65 | 211 | 4.0 | 10.0 | 0.00 | 0.01 | 0.00 | 89 | 1018.2 |
| 20260903053101 | 65 | 226 | 2.0 | 8.0 | 0.00 | 0.01 | 0.00 | 89 | 1018.1 |
| 20260903052543 | 65 | 206 | 3.0 | 8.0 | 0.00 | 0.01 | 0.00 | 89 | 1018.0 |
| 20260903052043 | 65 | 217 | 3.0 | 10.0 | 0.00 | 0.01 | 0.00 | 89 | 1017.9 |
| 20260903051604 | 65 | 218 | 3.0 | 10.0 | 0.00 | 0.01 | 0.00 | 89 | 1017.9 |
| 20260903051042 | 65 | 221 | 5.0 | 10.0 | 0.00 | 0.01 | 0.00 | 89 | 1017.9 |
| 20260903050542 | 65 | 234 | 3.0 | 8.0 | 0.00 | 0.01 | 0.00 | 89 | 1017.8 |
| 20260903050100 | 66 | 234 | 3.0 | 9.0 | 0.00 | 0.01 | 0.00 | 89 | 1018.0 |
| 20260903045544 | 66 | 217 | 3.0 | 9.0 | 0.00 | 0.01 | 0.00 | 89 | 1017.8 |
| 20260903045046 | 66 | 225 | 4.0 | 9.0 | 0.00 | 0.01 | 0.00 | 89 | 1017.9 |
| 20260903044601 | 66 | 275 | 4.0 | 9.0 | 0.00 | 0.01 | 0.00 | 89 | 1017.8 |
| 20260903044043 | 66 | 209 | 4.0 | 9.0 | 0.00 | 0.01 | 0.00 | 89 | 1017.7 |
| 20260903043542 | 66 | 213 | 3.0 | 9.0 | 0.00 | 0.01 | 0.00 | 89 | 1017.8 |
| 20260903043107 | 66 | 193 | 3.0 | 9.0 | 0.00 | 0.01 | 0.00 | 89 | 1017.7 |
| 20260903042543 | 66 | 232 | 3.0 | 8.0 | 0.00 | 0.01 | 0.00 | 89 | 1017.8 |
| 20260903042044 | 66 | 200 | 4.0 | 11.0 | 0.00 | 0.01 | 0.00 | 89 | 1017.7 |
| 20260903041558 | 66 | 242 | 4.0 | 11.0 | 0.00 | 0.01 | 0.00 | 89 | 1017.7 |
| 20260903041043 | 66 | 224 | 3.0 | 7.0 | 0.00 | 0.01 | 0.00 | 89 | 1017.8 |
| 20260903040543 | 66 | 213 | 3.0 | 9.0 | 0.00 | 0.01 | 0.00 | 89 | 1017.7 |
| 20260903040100 | 66 | 213 | 2.0 | 9.0 | 0.00 | 0.01 | 0.00 | 89 | 1017.9 |
| 20260903035543 | 66 | 234 | 2.0 | 12.0 | 0.00 | 0.01 | 0.00 | 89 | 1017.8 |
| 20260903035044 | 66 | 244 | 3.0 | 12.0 | 0.00 | 0.01 | 0.00 | 89 | 1017.8 |
| 20260903034558 | 66 | 191 | 4.0 | 12.0 | 0.00 | 0.01 | 0.00 | 89 | 1017.7 |
| 20260903034045 | 66 | 253 | 2.0 | 8.0 | 0.00 | 0.01 | 0.00 | 89 | 1017.8 |
| 20260903033542 | 66 | 181 | 3.0 | 9.0 | 0.00 | 0.01 | 0.00 | 89 | 1017.8 |
| 20260903033102 | 66 | 222 | 2.0 | 10.0 | 0.00 | 0.01 | 0.00 | 89 | 1017.8 |
| 20260903032543 | 66 | 235 | 4.0 | 10.0 | 0.00 | 0.01 | 0.00 | 89 | 1017.9 |
| 20260903032044 | 66 | 239 | 3.0 | 10.0 | 0.00 | 0.01 | 0.00 | 89 | 1017.9 |
| 20260903031600 | 66 | 210 | 3.0 | 10.0 | 0.00 | 0.01 | 0.00 | 89 | 1017.7 |
| 20260903031043 | 66 | 219 | 5.0 | 12.0 | 0.00 | 0.01 | 0.00 | 89 | 1017.8 |
| 20260903030544 | 65 | 244 | 5.0 | 12.0 | 0.00 | 0.01 | 0.00 | 89 | 1017.9 |
| 20260903025542 | 66 | 202 | 4.0 | 10.0 | 0.00 | 0.01 | 0.00 | 89 | 1018.0 |
| 20260903025042 | 66 | 206 | 4.0 | 10.0 | 0.00 | 0.01 | 0.00 | 89 | 1017.8 |
| 20260903024602 | 66 | 221 | 3.0 | 10.0 | 0.00 | 0.01 | 0.00 | 89 | 1017.8 |
| 20260903024043 | 66 | 161 | 4.0 | 10.0 | 0.00 | 0.01 | 0.00 | 88 | 1017.9 |
| 20260903023545 | 66 | 213 | 5.0 | 10.0 | 0.00 | 0.01 | 0.00 | 88 | 1017.9 |
| 20260903023104 | 66 | 224 | 4.0 | 9.0 | 0.00 | 0.01 | 0.00 | 88 | 1017.9 |
| 20260903022543 | 66 | 213 | 3.0 | 12.0 | 0.00 | 0.01 | 0.00 | 88 | 1017.9 |
| 20260903022042 | 66 | 206 | 4.0 | 12.0 | 0.00 | 0.01 | 0.00 | 88 | 1018.0 |
| 20260903021559 | 66 | 214 | 5.0 | 9.0 | 0.00 | 0.01 | 0.00 | 88 | 1018.1 |
| 20260903021043 | 66 | 249 | 5.0 | 11.0 | 0.00 | 0.01 | 0.00 | 88 | 1017.9 |
| 20260903020542 | 66 | 255 | 2.0 | 11.0 | 0.00 | 0.01 | 0.00 | 88 | 1017.9 |
| 20260903020100 | 65 | 200 | 3.0 | 9.0 | 0.00 | 0.01 | 0.00 | 88 | 1017.8 |